Location: Unspecified
(51.0950°N, 12.9690°E)
Time: 15:22:39
(UTC+00:00)

EO-79 - Pass Details

Date: 02 May 2024
Orbit: 562 x 575 km, 98.0° (Epoch: 25 May)

Event Time Altitude Azimuth Distance (km) Brightness Sun altitude
Rises 01:22:51 0° 26° (NNE) 2,804 ? -16.9°
Reaches altitude 10° 01:25:29 10° 43° (NE) 1,900 ? -16.7°
Maximum altitude 01:28:34 20° 92° (E) 1,352 ? -16.4°
Drops below altitude 10° 01:31:38 10° 141° (SE) 1,888 ? -16.1°
Enters shadow 01:33:04 - 152° (SSE) 2,354 ? -16.0°
